Location: Platte
(43.3870°N, 98.8440°W)
Time: 02:44:56
(UTC-05:00)

Aureole 2 Rocket - Pass Details

Date: 21 May 2018
Orbit: 323 x 526 km, 73.9° (Epoch: 19 June)

Event Time Altitude Azimuth Distance (km) Brightness Sun altitude
Rises 22:52:03 0° 346° (NNW) 2,307 7.2 -16.4°
Reaches altitude 10° 22:54:15 10° 355° (N) 1,407 5.8 -16.7°
Maximum altitude 22:57:07 36° 65° (ENE) 594 2.9 -17.0°
Enters shadow 22:57:19 36° 76° (ENE) 599 2.8 -17.0°
